COSMOS 2251 DEB, 35759

Orbit data source: Space-Track

COSMOS 2251 DEB, 35759 is space debris in LEO originally from a launch on Wed, 16 Jun 1993 UTC launched from the Plesetsk Missile And Space Complex (PKMTR). The debris from Iridium 33, an American commercial communications satellite, has been tracked extensively since its accidental collision with the defunct Russian satellite Cosmos 2251 in 2009. This event, occurring at high speed in low Earth orbit (LEO), generated thousands of pieces of space debris, significantly increasing the risk of further collisions. The Iridium 33 debris cloud has impacted space traffic management and orbital debris mitigation strategies, making it a subject of ongoing study in space situational awareness.

Loading next visibility...
Identifier
35759, 1993-036ARD
Orbit
LEO
Country
Flag of CISCIS
Related business
Manufacturer
Unknown
Mission
Spacecraft
Bus & Motor
Unknown
Mass
Unknown
Launch date (UTC)
1993-06-16 (33 years ago)
Launch vehicle
Unknown
Launch site
Plesetsk Missile And Space Complex (PKMTR)
Object type
Payload
Rocket body
Debris
Shape & HBR
Unknown shape, 0.1 m
Radar Cross Section
Small (<0.1 m²)

Expand to show TLE details & history
Last TLE update: 2 days ago

TLE from 2 days ago
0 COSMOS 2251 DEB
1 35759U 93036ARD 25351.36000274  .00001140  00000-0  21012-3 0  9993
2 35759  74.0368 207.1613 0077200 324.2826  35.3190 14.64906170662038
Epoch: 2025-12-17T08:38Z
TLE epoch observation values (Epoch: 2025-12-17T08:38:24.236Z)
Latitude
-0.00007°
Longitude
-8.67069°
Altitude
635.714 km
Speed
7.564 km/s
True Right ascension
13h 48m 38s
True Declination
0° 00' 00"
Sunlit
Object was in daylight at epoch
Visualization orbit readout
Latitude
Unknown
Longitude
Unknown
Altitude
Unknown
Speed
Unknown
Apparent Right ascension
Unknown
Apparent Declination
Unknown
Sunlit
N/A
Visualization observer readout
Local Sidereal Time
05:19:24
Azimuth
Unknown
Elevation
Unknown
Doppler factor
Unknown
Orbital elements
Apogee altitude
729.418 km
Perigee altitude
620.519 km
Semi-major axis
7,053.105 km
Eccentricity
0.00772
Inclination
74.0368°
RAAN
207.1613°
Arg. of periapsis
324.2826°
True anomaly
35.83449°
Mean anomaly
35.319°
Eccentric anomaly
35.57634°
Mean motion
3.66414 °/min
Orbital period
98.25 mins
BSTAR
0.00021012
Loading maneuver chart data...
Computing Atmospheric mass density...

Documentation

Showing up to 5 results
|